Weather History for Key West, FL

Change the Weather History Date:

Sunday, October 7, 2012

  Actual Average Record
Temperature  
Mean Temperature 84 °F 82 °F  
Max Temperature 88 °F 86 °F 91 °F (2009)
Min Temperature 79 °F 77 °F 70 °F (1987)
Degree Days  
Heating Degree Days 0 0  
Month to date heating degree days 0 0  
Since 1 July heating degree days 0 0  
Cooling Degree Days 19 17  
Month to date cooling degree days 127 119  
Year to date cooling degree days 3978 3854  
Growing Degree Days 33 (Base 50)    
Moisture  
Dew Point 75 °F    
Average Humidity 80    
Maximum Humidity 91    
Minimum Humidity 68    
Precipitation  
Precipitation 0.14 in 0.19 in 1.74 in (1962)
Month to date precipitation 1.53 1.30  
Year to date precipitation 44.41 31.68  
Snow  
Snow 0.00 in - - ()
Month to date snowfall 0.0  
Since 1 July snowfall 0.0  
Since 1 September snowfall 0.0  
Snow Depth 0.00 in    
Sea Level Pressure  
Sea Level Pressure 29.92 in    
Wind  
Wind Speed 6 mph (ENE)    
Max Wind Speed 15 mph    
Max Gust Speed 22 mph    
Visibility 10 miles    
Events Rain , Thunderstorm    
T = Trace of Precipitation, MM = Missing Value Source: NWS Daily Summary

Daily Weather History Graph

Daily Weather History Graph

Search for Another Location

Airport:

Trip Planner

Search our weather history database for the weather conditions in past years. The results will help you decide how hot, cold, wet, or windy it might be!

Date:

Astronomy

Oct. 07, 2012 Rise Set
Actual Time 7:21 AM EDT 7:07 PM EDT
Civil Twilight 6:58 AM EDT 7:30 PM EDT
Nautical Twilight 6:32 AM EDT 7:56 PM EDT
Astronomical Twilight 6:05 AM EDT 8:22 PM EDT
Moon No Moon Rise 1:32 PM EDT (10/7)
Length of Visible Light 12h 31m
Length of Day
11h 45m
Waning Gibbous, 56% of the Moon is Illuminated
Oct 7
Waning Gibbous
Oct 8
Last Quarter
Oct 15
New
Oct 21
First Quarter
Oct 29
Full

Hourly Weather History & Observations

Time (EDT) Temp. Heat Index Dew Point Humidity Pressure Visibility Wind Dir Wind Speed Gust Speed Precip Events Conditions
12:25 AM 80.6 °F 86.2 °F 75.2 °F 84% 29.94 in 10.0 mi North 4.6 mph - N/A   Partly Cloudy
12:36 AM 80.6 °F 86.2 °F 75.2 °F 84% 29.93 in 10.0 mi NNE 6.9 mph - N/A   Mostly Cloudy
12:53 AM 81.0 °F 87.3 °F 75.9 °F 85% 29.94 in 10.0 mi North 4.6 mph - N/A   Mostly Cloudy
1:02 AM 80.6 °F 86.2 °F 75.2 °F 84% 29.93 in 10.0 mi NNE 5.8 mph - N/A   Partly Cloudy
1:53 AM 81.0 °F 87.3 °F 75.9 °F 85% 29.92 in 10.0 mi NE 4.6 mph - N/A   Clear
2:53 AM 80.1 °F 85.4 °F 75.9 °F 87% 29.91 in 10.0 mi NE 4.6 mph - N/A   Clear
3:53 AM 81.0 °F 87.3 °F 75.9 °F 85% 29.89 in 10.0 mi ENE 6.9 mph - N/A   Clear
4:53 AM 80.1 °F 85.4 °F 75.9 °F 87% 29.88 in 10.0 mi ENE 6.9 mph - N/A   Clear
5:53 AM 80.1 °F 85.1 °F 75.0 °F 85% 29.88 in 10.0 mi ENE 4.6 mph - N/A   Clear
6:53 AM 80.1 °F 85.4 °F 75.9 °F 87% 29.89 in 10.0 mi ENE 3.5 mph - N/A   Clear
7:33 AM 80.6 °F 87.1 °F 77.0 °F 89% 29.90 in 10.0 mi NNE 3.5 mph - N/A   Mostly Cloudy
7:51 AM 80.6 °F 87.1 °F 77.0 °F 89% 29.91 in 10.0 mi NNE 3.5 mph - N/A   Partly Cloudy
7:53 AM 81.0 °F 87.9 °F 77.0 °F 88% 29.91 in 10.0 mi Calm Calm - N/A   Partly Cloudy
8:53 AM 84.0 °F 91.9 °F 75.0 °F 74% 29.93 in 10.0 mi East 4.6 mph - N/A   Partly Cloudy
9:53 AM 86.0 °F 95.1 °F 75.0 °F 70% 29.94 in 10.0 mi East 5.8 mph - N/A   Scattered Clouds
10:53 AM 86.0 °F 95.1 °F 75.0 °F 70% 29.96 in 10.0 mi East 6.9 mph - N/A   Scattered Clouds
11:53 AM 86.0 °F 96.0 °F 75.9 °F 72% 29.95 in 10.0 mi East 9.2 mph - N/A   Clear
12:53 PM 87.1 °F 97.3 °F 75.9 °F 69% 29.94 in 10.0 mi ESE 10.4 mph - N/A   Clear
1:34 PM 87.8 °F 99.7 °F 77.0 °F 70% 29.92 in 10.0 mi ESE 11.5 mph - N/A   Mostly Cloudy
1:53 PM 84.9 °F 93.3 °F 75.0 °F 72% 29.92 in 10.0 mi NE 10.4 mph 19.6 mph N/A   Mostly Cloudy
2:00 PM 84.2 °F 90.9 °F 73.4 °F 70% 29.92 in 10.0 mi NE 13.8 mph 21.9 mph N/A Thunderstorm Thunderstorm
2:07 PM 84.2 °F 90.9 °F 73.4 °F 70% 29.93 in 10.0 mi NNE 13.8 mph 21.9 mph N/A Thunderstorm Thunderstorm
2:33 PM 78.8 °F - 73.4 °F 83% 29.92 in 1.8 mi Calm Calm - 0.09 in Rain , Thunderstorm Heavy Thunderstorms and Rain
2:39 PM 80.6 °F 85.4 °F 73.4 °F 79% 29.91 in 2.0 mi Variable 3.5 mph - 0.14 in Rain , Thunderstorm Heavy Thunderstorms and Rain
2:53 PM 82.9 °F 90.8 °F 75.9 °F 79% 29.91 in 10.0 mi Calm Calm - 0.14 in Rain , Thunderstorm Light Thunderstorms and Rain
3:40 PM 86.0 °F 96.9 °F 77.0 °F 74% 29.90 in 10.0 mi ESE 8.1 mph - N/A Thunderstorm Thunderstorm
3:48 PM 86.0 °F 96.9 °F 77.0 °F 74% 29.90 in 10.0 mi ESE 8.1 mph - N/A Thunderstorm Thunderstorm
3:53 PM 87.1 °F 98.8 °F 77.0 °F 72% 29.90 in 10.0 mi East 9.2 mph - N/A Thunderstorm Thunderstorm
4:53 PM 84.9 °F 95.3 °F 77.0 °F 77% 29.89 in 10.0 mi ESE 4.6 mph - N/A Thunderstorm Thunderstorm
5:48 PM 84.2 °F 92.3 °F 75.2 °F 74% 29.90 in 10.0 mi ENE 6.9 mph - N/A   Clear
5:53 PM 84.9 °F 93.3 °F 75.0 °F 72% 29.90 in 10.0 mi NE 6.9 mph - N/A   Clear
6:53 PM 82.9 °F 90.8 °F 75.9 °F 79% 29.91 in 10.0 mi NE 6.9 mph - N/A   Clear
7:53 PM 82.0 °F 88.6 °F 75.0 °F 79% 29.94 in 10.0 mi ENE 5.8 mph - N/A   Clear
8:53 PM 82.0 °F 88.6 °F 75.0 °F 79% 29.95 in 10.0 mi ENE 10.4 mph - N/A   Clear
9:53 PM 82.0 °F 86.7 °F 72.0 °F 71% 29.96 in 10.0 mi ENE 5.8 mph - N/A   Clear
10:53 PM 82.0 °F 87.4 °F 73.0 °F 74% 29.96 in 10.0 mi East 11.5 mph - N/A   Partly Cloudy
11:53 PM 81.0 °F 86.2 °F 73.9 °F 79% 29.96 in 10.0 mi East 6.9 mph - N/A   Clear